Location: Chippewa Lake
(41.0698°N, 81.9010°W)
Time: 01:01:36
(UTC+00:00)

Cosmos 2297 Rocket - Pass Details

Date: 09 May 2021
Orbit: 838 x 845 km, 71.0° (Epoch: 24 June)

Event Time Altitude Azimuth Distance (km) Brightness Sun altitude
Rises 08:19:15 0° 333° (NNW) 3,410 5.6 -18.8°
Reaches altitude 10° 08:21:43 10° 330° (NNW) 2,472 4.8 -18.5°
Maximum altitude 08:27:19 65° 251° (WSW) 927 2.1 -17.7°
Drops below altitude 10° 08:32:54 10° 170° (S) 2,457 4.3 -16.9°
Enters shadow 08:34:35 - 168° (SSE) 3,092 4.8 -16.7°
